Simultaneous Nadir Overpasses (SNOs) Predictions

Prediction of SNOs between GOES-16 and AQUA Satellite Orbit:

Table of predicted SNOs for the next 14.0 days since TLE Epoch: 12/31/2021
Index Date Time (GOES-16) GOES-16 Lat,Lon AQUA Lat,Lon Distance(km) Time Diff (sec)
1 01/02/2022 06:36:25 -0.03, -75.17 0.02, -75.39 24.28 80
2 01/04/2022 06:26:54 -0.02, -75.17 -0.60, -72.43 312.13 80
3 01/04/2022 18:45:38 0.03, -75.18 -0.47, -77.62 277.39 80
4 01/06/2022 18:36:07 0.03, -75.19 0.17, -74.66 60.26 80
5 01/08/2022 18:23:56 0.03, -75.21 0.81, -71.71 398.87 80
6 01/09/2022 06:45:11 -0.03, -75.21 0.33, -76.85 187.35 80
7 01/11/2022 06:30:20 -0.03, -75.23 -0.32, -73.90 152.31 80
8 01/11/2022 18:51:44 0.03, -75.25 -0.79, -79.09 436.50 80
9 01/13/2022 06:18:08 -0.02, -75.26 -0.92, -70.93 492.52 80
10 01/13/2022 18:39:32 0.01, -75.28 -0.18, -76.12 96.11 80
